Temp_Advection
nan nan nan nan nan nan nan nan nan nan nan nan nan nan nan nan nan nan nan nan nan nan nan nan nan nan nan nan nan nan nan nan nan nan nan nan nan nan nan nan nan nan nan
nan 1 0 1 1 0 0 0 0 0 0 0 0 0 0 0 -0 0 0 0 0 0 0 0 0 -0 0 0 0 0 0 -0 0 -1 -1 -0 -0 -0 -1 -1 -1 -0 nan
nan 1 1 1 1 0 0 0 0 0 0 0 0 0 0 0 0 0 0 0 0 0 0 0 0 0 -0 0 0 0 0 0 0 -0 -1 -0 -0 -0 -0 -0 -0 -0 nan
nan 1 1 1 1 0 0 0 0 0 0 0 0 0 0 0 0 0 0 0 0 0 0 0 0 0 0 0 0 0 0 -0 0 0 -0 -0 -0 -0 -0 -0 -1 -1 nan
nan 1 1 0 1 0 1 1 -0 0 0 0 0 0 0 0 0 0 0 0 1 0 0 0 0 0 0 0 0 0 0 -0 0 0 -0 -0 -0 -0 -0 -0 -0 -1 nan
nan 1 0 0 1 1 1 0 -0 -0 0 0 0 0 0 0 0 0 0 0 0 0 0 0 0 0 0 0 0 0 0 0 0 0 -0 -0 -0 -0 -0 -0 0 -0 nan
nan 1 1 1 1 1 1 -0 -0 -0 -0 0 0 0 0 0 0 0 0 0 0 0 0 0 0 0 0 0 0 0 0 0 1 1 0 -0 -0 0 -0 -0 -0 0 nan
nan 1 1 1 2 1 0 -0 -0 0 0 0 0 0 0 0 0 0 0 0 0 1 0 0 1 0 0 0 -0 -0 -0 0 0 1 0 -0 0 0 0 -0 -0 -0 nan
nan 1 1 1 1 1 -0 -0 -0 -0 0 0 0 0 0 0 1 1 0 0 1 0 0 0 1 1 0 -0 0 -0 -0 0 0 0 0 0 -0 -0 -0 -0 -0 -0 nan
nan 1 1 1 0 -0 -0 -0 0 -0 -0 0 0 0 0 0 1 1 0 0 0 0 0 0 0 1 0 0 -0 -0 -0 -0 -0 -0 -0 -0 0 -0 -0 -0 -0 -0 nan
nan 2 1 0 -0 -0 -0 1 0 -0 -0 1 0 -0 -0 0 0 0 1 0 0 0 0 0 0 0 0 0 0 0 -0 -0 -0 -0 -0 -0 -0 -0 -0 -0 -0 0 nan
nan 0 -0 -0 -0 0 1 -0 -0 0 0 0 -0 -0 0 0 0 0 0 0 0 0 0 0 0 0 0 0 0 0 0 0 0 0 0 0 -0 -0 -0 -0 -0 -0 nan
nan 0 0 -0 -0 1 0 0 0 -0 0 -0 -0 -0 0 0 0 0 0 0 0 0 1 0 0 0 0 0 0 0 0 0 0 0 0 0 0 -0 -0 -1 -0 -0 nan
nan 0 0 0 -0 0 0 0 0 -0 -0 -0 0 0 -0 0 0 0 0 0 0 1 1 0 0 0 0 0 0 0 0 0 0 0 0 0 0 -0 -0 -0 -0 -0 nan
nan -0 -0 0 0 0 0 0 0 0 0 -0 -0 0 0 0 -0 0 0 0 0 1 1 1 0 0 0 0 0 0 0 0 0 0 0 0 0 -0 -0 -0 -0 -0 nan
nan -0 -0 -0 0 0 0 0 0 0 0 0 0 0 0 0 0 0 0 1 0 0 1 1 1 0 0 0 0 0 0 0 0 0 0 0 0 0 -0 -0 -0 -0 nan
nan -0 -0 -0 -0 0 0 0 0 0 0 0 0 0 0 0 0 0 0 1 1 0 0 1 1 0 0 0 0 0 0 0 0 0 0 0 0 0 -0 -0 -0 -0 nan
nan -1 -1 -0 -0 0 0 1 0 -0 -1 -0 0 1 0 0 0 0 0 1 1 0 0 1 0 0 0 0 0 0 0 0 0 1 1 0 0 0 0 -0 -0 -0 nan
nan 0 -0 -1 -0 -0 0 1 1 0 -0 -1 -0 0 0 0 0 1 0 0 0 0 0 1 0 0 0 0 0 0 0 -0 0 1 1 1 1 0 0 0 -0 -0 nan
nan -0 -0 -1 -1 -1 -0 -0 -0 0 0 0 0 1 1 0 0 -0 0 0 0 0 0 0 0 1 0 0 0 0 0 0 0 0 0 1 1 1 0 0 0 -0 nan
nan -1 -1 -1 -2 -2 -1 -1 -1 -1 -1 -0 0 0 1 0 0 0 -0 -0 0 0 1 0 0 0 0 0 0 0 0 0 0 0 0 0 0 1 1 0 0 0 nan
nan -1 -1 -1 -2 -2 -2 -2 -1 -1 -0 -0 -0 -0 0 0 0 0 0 0 -0 -0 -0 0 0 0 0 0 0 0 0 0 0 0 0 0 0 0 1 1 0 0 nan
nan -1 -1 -1 -2 -2 -2 -2 -2 -2 -2 -0 0 -0 0 1 0 0 0 0 -0 -0 -0 0 0 0 0 0 0 0 -0 0 1 1 0 0 0 0 1 0 1 0 nan
nan -1 -2 -1 -1 -2 -2 -1 -1 -1 -1 -2 -1 -0 0 0 0 0 0 -0 -0 0 -0 -0 0 0 0 0 0 0 0 -0 0 1 1 0 0 0 0 0 0 0 nan
nan -0 -1 -1 -1 -1 -2 -2 -1 -1 -1 -1 -1 -0 -0 0 0 0 0 0 -0 -0 -0 0 0 0 0 0 0 -0 -0 0 0 0 0 1 0 0 0 0 0 0 nan
nan nan nan nan nan nan nan nan nan nan nan nan nan nan nan nan nan nan nan nan nan nan nan nan nan nan nan nan nan nan nan nan nan nan nan nan nan nan nan nan nan nan nan
Wind_Speed
26 23 21 15 12 10 8 11 10 12 12 13 13 14 14 10 8 14 17 18 14 11 14 16 15 17 14 17 20 22 23 27 28 33 35 37 38 40 40 36 31 29 27
28 23 19 15 13 11 10 11 14 13 15 14 15 14 12 9 14 17 20 16 14 16 17 21 16 17 21 22 25 27 28 28 32 35 35 35 34 32 30 30 28 25 24
30 26 21 18 16 12 11 15 14 17 18 17 18 14 8 13 18 19 12 13 14 16 15 17 21 18 21 24 26 28 29 30 25 25 29 27 25 23 24 23 24 22 23
29 25 21 18 16 15 16 14 15 19 19 19 18 12 11 17 19 20 19 17 18 15 18 15 17 20 23 27 30 29 26 26 26 27 26 26 25 25 24 27 27 27 28
28 22 20 13 14 17 15 12 16 21 20 21 16 14 15 18 18 20 17 18 22 22 18 17 19 22 27 29 25 26 27 26 28 28 27 28 30 29 27 29 28 34 36
29 24 17 15 23 16 13 10 13 15 20 19 19 20 19 19 21 21 20 19 19 18 18 18 20 24 24 24 24 25 24 26 26 21 24 26 25 23 25 29 34 36 36
29 23 22 23 21 17 13 14 14 16 18 21 23 24 21 21 22 21 20 20 19 20 20 20 21 23 23 23 24 25 21 22 20 19 20 25 29 28 29 33 28 25 27
25 25 24 22 18 13 11 12 13 18 22 20 24 21 22 22 21 20 18 18 20 21 20 21 22 21 21 21 23 22 22 21 19 15 20 27 28 22 18 19 23 26 26
26 25 19 15 12 8 4 13 17 26 20 20 20 19 22 22 20 19 19 20 20 20 21 23 19 18 20 22 22 24 23 20 17 16 16 17 16 12 13 17 19 25 25
21 14 10 8 4 4 9 21 22 20 23 24 23 22 22 22 21 20 20 20 19 19 22 19 17 18 20 21 22 23 21 17 18 18 18 19 12 12 12 14 17 20 23
14 15 12 5 6 7 16 21 22 24 26 25 16 21 22 24 20 18 18 16 16 18 21 17 18 19 19 19 21 18 14 16 18 20 22 22 17 15 14 13 13 15 23
14 5 3 8 7 15 19 22 22 21 17 13 17 19 21 22 20 17 14 15 17 19 19 17 17 17 14 17 13 12 13 15 18 21 22 23 26 18 14 15 15 15 18
8 14 9 7 16 19 19 18 17 16 14 14 16 18 22 22 21 19 16 15 17 20 20 18 17 13 15 13 11 12 14 16 19 20 22 23 26 18 16 17 15 14 16
8 6 11 17 16 15 16 14 16 18 20 19 16 17 21 22 21 20 20 19 18 20 20 19 18 18 18 14 12 13 13 15 18 19 22 24 21 17 18 14 14 16 19
10 13 14 15 15 15 16 17 17 18 20 20 20 22 22 24 23 24 25 23 21 21 21 22 23 23 21 17 13 14 13 13 17 20 21 25 20 18 17 11 12 15 17
15 15 15 15 16 17 19 19 15 18 20 23 23 21 22 26 26 28 28 26 24 24 24 25 27 26 24 18 14 15 14 14 18 20 24 21 19 16 15 11 11 13 14
16 16 17 18 19 20 20 21 23 23 24 26 25 21 21 24 25 24 26 29 26 26 29 27 27 26 23 18 15 14 14 17 18 21 25 18 15 12 14 13 13 12 11
23 25 25 24 23 24 25 26 27 30 32 26 22 21 22 23 23 26 27 27 28 29 31 28 26 24 21 18 16 16 15 17 19 21 21 16 13 14 13 12 12 12 12
20 24 26 29 30 32 32 33 31 30 33 33 34 31 24 22 24 26 25 30 32 32 30 28 26 24 21 19 18 17 18 20 19 22 20 17 17 16 13 11 10 11 11
23 24 25 28 30 33 36 39 39 39 38 37 36 33 28 23 24 24 28 32 33 32 30 28 24 22 21 19 20 20 21 22 22 22 22 17 17 17 13 10 9 11 12
33 34 33 31 30 32 34 37 39 38 41 41 39 33 29 26 27 27 27 27 32 32 36 28 23 23 20 20 21 22 24 24 23 21 19 17 16 15 12 10 8 9 11
32 35 36 36 36 36 37 37 36 38 43 39 35 33 32 26 26 27 26 28 29 28 29 37 27 24 22 21 21 23 25 25 23 22 20 18 17 15 12 11 8 9 11
32 33 32 31 33 35 37 37 36 37 37 30 35 37 32 28 26 23 23 25 24 26 26 33 30 23 22 22 22 23 27 26 24 22 20 20 19 15 14 12 10 11 11
26 27 32 32 29 29 29 34 36 34 35 36 39 35 24 26 21 19 18 16 17 18 17 32 20 18 18 19 19 20 20 21 26 24 22 20 19 16 15 13 12 11 11
25 25 28 29 27 28 27 23 19 15 17 22 21 17 19 16 17 12 12 12 15 17 14 12 11 15 19 22 22 22 21 20 19 23 25 21 19 17 16 15 13 11 11
24 24 24 25 24 24 24 23 21 19 16 14 13 10 6 7 8 8 11 13 16 19 18 17 20 22 22 23 22 21 22 22 21 18 26 25 21 19 17 15 14 14 12
Wind_Direction
232 228 219 224 242 250 255 286 293 299 302 307 304 297 301 306 298 286 294 299 297 294 290 289 289 282 285 289 290 296 298 297 299 297 297 300 301 301 303 305 303 307 309
229 226 228 231 256 247 268 283 291 302 306 309 302 299 298 294 285 288 298 295 288 287 286 291 306 306 299 295 300 304 305 304 303 305 303 305 305 307 307 308 309 305 307
224 223 231 236 245 244 250 274 283 295 304 300 310 300 276 285 284 306 289 278 272 285 294 296 299 305 303 304 302 303 302 306 311 313 313 314 317 322 321 322 319 314 310
223 226 232 235 240 259 249 253 288 290 295 302 310 312 281 279 289 295 278 276 282 291 301 289 294 298 299 299 301 305 307 317 320 318 316 317 320 324 321 318 319 315 314
224 228 222 239 240 226 232 268 310 287 300 298 297 290 292 286 288 292 292 287 280 283 295 292 296 296 299 299 297 301 312 316 318 317 313 318 319 323 316 314 313 315 310
217 216 219 220 208 227 243 271 301 303 287 294 288 286 291 281 288 290 291 291 287 294 293 293 296 303 298 289 295 306 308 311 312 307 309 316 316 316 311 308 313 313 315
219 211 209 211 215 221 247 287 318 301 300 290 289 285 283 279 285 281 285 292 290 293 294 298 305 299 293 287 293 298 303 307 306 303 300 300 302 304 307 310 313 313 311
205 203 208 212 226 236 276 325 287 289 273 283 287 283 280 278 280 278 282 288 290 288 294 301 302 296 291 296 302 306 314 315 313 299 289 297 301 309 311 308 310 312 313
197 200 200 214 226 246 335 278 275 279 281 280 280 283 280 282 277 274 280 287 289 296 302 303 300 288 289 296 304 309 314 321 320 319 320 314 306 312 311 316 320 332 326
176 186 203 198 230 300 296 283 286 286 286 284 282 281 281 280 276 274 283 285 294 299 309 301 292 284 285 293 300 309 314 322 333 336 334 339 325 317 311 314 317 315 315
202 220 214 203 259 297 282 282 287 286 285 287 287 286 285 287 287 288 290 287 292 301 313 304 294 287 290 300 304 306 316 327 341 333 340 343 329 315 312 309 313 319 327
203 174 312 282 292 276 276 287 292 298 294 293 285 280 277 286 289 285 284 284 297 300 302 305 294 289 292 300 298 309 319 328 329 332 336 332 340 330 320 317 314 316 310
308 309 280 268 271 288 292 290 301 310 280 279 290 279 283 291 288 282 281 281 290 304 296 295 295 291 305 296 303 312 317 321 325 328 327 331 332 326 321 318 315 321 317
282 251 270 289 299 294 295 297 301 304 305 282 276 280 290 288 284 276 276 271 287 297 296 283 289 296 306 291 298 310 302 310 318 318 324 326 325 332 336 334 336 340 340
307 305 304 301 297 299 299 301 292 284 292 305 301 270 270 271 278 276 273 265 284 298 293 277 279 290 294 281 285 296 294 302 306 314 317 321 327 334 344 346 346 352 344
311 305 302 300 300 301 301 299 288 288 285 294 301 301 286 276 277 273 273 264 277 289 283 279 278 281 283 276 273 292 289 292 298 309 317 319 326 328 342 343 340 349 349
306 305 302 297 296 293 294 295 296 293 286 286 285 282 286 286 279 274 273 273 272 275 276 276 273 272 277 264 265 280 286 289 301 308 319 323 317 324 334 338 340 339 347
306 305 302 299 298 294 293 295 292 290 292 305 312 298 284 279 282 280 274 274 263 264 269 272 271 273 269 259 258 266 276 290 299 303 314 324 324 326 326 327 344 339 337
301 300 301 301 299 296 294 290 282 281 290 301 304 299 302 292 282 275 265 265 267 263 267 271 273 271 267 257 258 264 269 278 291 303 308 309 314 316 317 314 322 342 329
309 303 299 297 296 295 289 287 286 281 287 290 292 289 293 289 288 287 265 265 261 262 263 268 272 272 266 261 259 261 264 274 284 292 300 300 310 307 305 302 310 325 338
309 308 307 303 303 304 299 294 291 290 289 287 282 289 284 281 284 282 283 283 270 269 261 256 259 267 267 263 260 260 266 272 278 282 294 302 304 305 298 290 292 304 319
314 313 313 313 310 303 294 291 298 295 280 279 281 282 285 274 275 275 275 280 279 278 277 262 252 254 261 263 264 261 263 267 269 270 277 290 295 300 294 284 278 283 299
321 321 321 320 318 315 312 309 301 298 293 278 285 280 275 275 276 275 276 283 279 278 276 274 253 261 263 267 271 272 268 269 268 267 271 276 286 287 288 279 279 272 280
330 325 322 326 326 327 322 311 302 299 300 291 298 262 264 279 270 273 277 283 288 274 283 270 255 256 261 266 268 267 269 274 273 265 262 265 273 273 276 275 272 262 266
335 332 329 333 337 329 323 347 2 341 319 300 291 285 280 258 267 247 242 262 279 287 282 280 272 267 262 266 269 271 267 266 265 271 259 256 258 260 263 266 260 261 266
339 338 341 344 342 336 336 342 346 352 360 5 26 52 100 127 185 226 253 267 276 276 271 267 268 266 264 264 264 259 259 259 261 258 265 250 248 250 253 257 251 253 249
Height
1530 1533 1536 1537 1538 1537 1537 1537 1536 1536 1536 1535 1535 1535 1533 1531 1529 1527 1526 1525 1522 1521 1521 1519 1518 1517 1516 1515 1512 1508 1506 1503 1497 1493 1491 1487 1483 1480 1476 1473 1470 1466 1463
1527 1530 1533 1535 1535 1535 1535 1534 1535 1535 1534 1532 1532 1531 1530 1528 1526 1523 1522 1521 1517 1515 1515 1515 1513 1512 1511 1509 1507 1503 1500 1497 1492 1486 1483 1479 1476 1473 1469 1466 1463 1461 1458
1519 1523 1527 1529 1532 1533 1534 1534 1533 1533 1532 1530 1529 1526 1525 1523 1522 1519 1518 1517 1514 1512 1510 1510 1510 1507 1506 1504 1501 1497 1493 1491 1487 1482 1477 1474 1470 1467 1463 1460 1458 1455 1453
1514 1517 1520 1525 1528 1530 1531 1531 1532 1531 1529 1528 1526 1525 1523 1520 1518 1516 1515 1515 1512 1508 1508 1505 1503 1502 1500 1499 1496 1491 1487 1485 1481 1477 1473 1469 1466 1463 1460 1456 1452 1450 1446
1510 1512 1516 1520 1524 1527 1528 1527 1528 1526 1526 1524 1521 1519 1518 1516 1514 1511 1510 1509 1507 1505 1504 1501 1499 1497 1495 1495 1490 1487 1483 1480 1476 1472 1468 1465 1461 1458 1454 1451 1448 1444 1440
1505 1509 1512 1516 1519 1521 1521 1522 1523 1522 1518 1517 1518 1514 1512 1510 1510 1508 1506 1505 1504 1502 1499 1496 1494 1493 1490 1489 1486 1483 1480 1476 1472 1468 1465 1461 1457 1454 1451 1447 1443 1439 1432
1501 1504 1505 1507 1510 1510 1514 1515 1517 1515 1514 1513 1511 1509 1507 1505 1503 1502 1501 1500 1499 1497 1495 1492 1491 1488 1487 1485 1483 1480 1477 1473 1469 1465 1461 1457 1453 1450 1447 1443 1439 1436 1433
1497 1499 1500 1502 1505 1506 1507 1511 1513 1512 1508 1506 1505 1503 1500 1498 1497 1497 1496 1495 1493 1493 1489 1487 1486 1482 1482 1480 1478 1474 1471 1468 1464 1461 1457 1453 1449 1445 1443 1440 1436 1432 1429
1491 1494 1496 1499 1501 1501 1506 1508 1506 1502 1501 1500 1498 1497 1495 1494 1493 1492 1491 1490 1489 1487 1485 1482 1480 1479 1477 1475 1473 1470 1466 1463 1460 1456 1452 1449 1445 1442 1440 1437 1433 1429 1424
1489 1491 1493 1494 1498 1502 1504 1503 1501 1498 1497 1493 1492 1491 1489 1489 1488 1487 1486 1485 1484 1481 1480 1477 1476 1475 1473 1471 1468 1465 1461 1458 1455 1451 1448 1444 1441 1438 1436 1434 1431 1427 1424
1488 1486 1489 1494 1496 1496 1496 1494 1494 1493 1489 1488 1486 1486 1485 1484 1484 1483 1481 1480 1478 1477 1475 1473 1471 1470 1468 1466 1463 1460 1458 1454 1451 1448 1444 1441 1438 1434 1432 1430 1428 1425 1421
1480 1487 1490 1491 1492 1491 1490 1489 1488 1486 1483 1482 1481 1480 1479 1478 1477 1477 1475 1475 1474 1472 1471 1469 1467 1465 1464 1462 1459 1457 1454 1451 1449 1445 1441 1438 1434 1430 1428 1426 1423 1421 1418
1486 1487 1488 1488 1487 1486 1486 1484 1483 1481 1479 1477 1476 1476 1475 1474 1471 1471 1469 1468 1468 1467 1466 1464 1463 1462 1460 1457 1455 1453 1450 1448 1446 1442 1439 1436 1432 1428 1425 1422 1419 1417 1413
1485 1485 1485 1484 1484 1482 1481 1480 1478 1477 1475 1474 1472 1470 1469 1468 1467 1465 1464 1463 1463 1462 1461 1459 1458 1457 1455 1453 1451 1450 1447 1445 1442 1439 1436 1433 1429 1425 1422 1419 1416 1412 1409
1483 1483 1482 1481 1479 1478 1476 1475 1473 1472 1471 1469 1467 1464 1463 1461 1460 1459 1458 1457 1457 1455 1454 1453 1452 1451 1450 1448 1447 1445 1444 1441 1439 1437 1433 1430 1426 1423 1420 1417 1414 1411 1409
1481 1480 1478 1477 1475 1474 1472 1469 1468 1465 1464 1463 1460 1458 1456 1454 1453 1452 1451 1450 1449 1449 1447 1445 1445 1445 1444 1443 1441 1440 1439 1437 1435 1433 1430 1426 1423 1420 1418 1416 1413 1411 1408
1478 1476 1474 1473 1470 1468 1466 1463 1459 1459 1457 1455 1452 1450 1449 1447 1445 1444 1443 1442 1442 1441 1438 1438 1438 1438 1438 1437 1436 1436 1435 1433 1432 1430 1427 1423 1420 1418 1416 1414 1412 1410 1407
1474 1472 1469 1467 1464 1462 1460 1456 1454 1450 1446 1444 1443 1441 1439 1438 1437 1436 1436 1435 1433 1433 1431 1431 1431 1431 1430 1430 1430 1430 1430 1428 1428 1426 1423 1420 1418 1416 1414 1412 1410 1408 1406
1470 1467 1464 1461 1457 1455 1452 1449 1446 1442 1439 1436 1434 1432 1431 1429 1428 1427 1427 1425 1423 1424 1424 1423 1423 1423 1423 1423 1423 1424 1424 1423 1423 1422 1419 1417 1415 1413 1411 1410 1408 1407 1405
1464 1461 1458 1453 1449 1446 1442 1439 1435 1432 1429 1427 1424 1422 1421 1421 1418 1417 1416 1415 1414 1414 1415 1415 1415 1415 1416 1416 1417 1417 1417 1417 1417 1417 1415 1413 1411 1410 1409 1407 1406 1405 1403
1456 1452 1448 1444 1441 1437 1433 1429 1425 1421 1418 1414 1412 1412 1412 1411 1409 1408 1407 1405 1404 1405 1405 1406 1407 1407 1408 1408 1409 1410 1410 1411 1411 1411 1410 1409 1408 1406 1405 1404 1403 1403 1401
1449 1444 1439 1435 1430 1426 1423 1419 1414 1410 1405 1403 1401 1400 1401 1401 1400 1398 1398 1397 1396 1396 1395 1395 1396 1398 1400 1401 1402 1403 1403 1403 1405 1405 1405 1405 1404 1403 1402 1401 1400 1400 1399
1441 1436 1431 1427 1423 1417 1412 1408 1403 1399 1397 1390 1392 1391 1390 1391 1390 1390 1389 1389 1388 1386 1385 1385 1387 1390 1392 1393 1393 1394 1394 1395 1397 1398 1399 1399 1399 1399 1398 1397 1397 1397 1397
1435 1431 1426 1421 1416 1411 1405 1399 1394 1391 1387 1383 1378 1376 1378 1381 1381 1382 1382 1382 1380 1379 1377 1377 1380 1383 1384 1385 1385 1385 1386 1387 1388 1390 1392 1393 1394 1394 1394 1394 1394 1394 1393
1430 1426 1422 1416 1411 1406 1401 1395 1388 1383 1379 1375 1373 1372 1372 1373 1375 1375 1375 1375 1375 1375 1374 1375 1375 1376 1377 1378 1378 1378 1378 1379 1380 1382 1384 1385 1387 1389 1389 1389 1390 1390 1391
1427 1422 1418 1413 1408 1404 1399 1394 1389 1383 1378 1374 1371 1367 1366 1365 1367 1368 1369 1369 1369 1369 1369 1369 1369 1369 1369 1369 1369 1370 1370 1371 1372 1373 1376 1378 1380 1382 1383 1384 1385 1386 1387